Guymon, OK

2:16 AM CDT on May 24, 2017 (GMT -0500)
Guymon Municipal

Weather History for KGUY - June, 2013

Change the Weather History Date:

Saturday, June 22, 2013

  Actual Average Record
Temperature  
Mean Temperature 82 °F 76 °F  
Max Temperature 97 °F 90 °F 102 °F (2016)
Min Temperature 67 °F 62 °F 57 °F (2001)
Degree Days  
Heating Degree Days 0 0  
Month to date heating degree days 0 6  
Since 1 June heating degree days 0 6  
Since 1 July heating degree days 4311 4455  
Cooling Degree Days 17 11  
Month to date cooling degree days 283 183  
Year to date cooling degree days 487 291  
Since 1 June cooling degree days 283 183  
Growing Degree Days 32 (Base 50)    
Moisture  
Dew Point 62 °F    
Average Humidity 52    
Maximum Humidity 76    
Minimum Humidity 27    
Precipitation  
Precipitation 0.00 in 0.08 in 0.79 in (2004)
Month to date precipitation 2.77 2.40  
Year to date precipitation 5.12 8.65  
Snow  
Snow 0.00 in - - ()
Month to date snowfall T  
Since 1 June snowfall T  
Since 1 July snowfall 22.3  
Snow Depth 0.00 in    
Sea Level Pressure  
Sea Level Pressure 29.66 in    
Wind  
Wind Speed 19 mph (South)    
Max Wind Speed 30 mph    
Max Gust Speed 44 mph    
Visibility 10 miles    
Events      
T = Trace of Precipitation, MM = Missing Value Source: NWS Daily Summary

Daily Weather History Graph

Daily Weather History Graph

Search for Another Location

Airport or City:

Trip Planner

Search our weather history database for the weather conditions in past years. The results will help you decide how hot, cold, wet, or windy it might be!

Date:

Astronomy

Jun. 22, 2013 Rise Set
Actual Time 6:27 AM CDT 9:08 PM CDT
Civil Twilight 5:57 AM CDT 9:39 PM CDT
Nautical Twilight 5:19 AM CDT 10:17 PM CDT
Astronomical Twilight 4:36 AM CDT 11:00 PM CDT
Moon 8:26 PM CDT (6/22) 5:40 AM CDT (6/22)
Length of Visible Light 15h 41m
Length of Day
14h 40m
Waxing Gibbous, 99% of the Moon is Illuminated
Jun 22
Waxing Gibbous
Jun 23
Full
Jun 29
Last Quarter
Jul 8
New
Jul 15
First Quarter

Hourly Weather History & Observations

Time (CDT) Temp. Heat Index Dew Point Humidity Pressure Visibility Wind Dir Wind Speed Gust Speed Precip Events Conditions
12:53 AM 79.0 °F - 62.1 °F 56% 29.70 in 10.0 mi South 19.6 mph 26.5 mph N/A   Clear
1:53 AM 77.0 °F - 61.0 °F 58% 29.70 in 10.0 mi South 19.6 mph - N/A   Clear
2:53 AM 75.9 °F - 60.1 °F 58% 29.70 in 10.0 mi South 15.0 mph - N/A   Clear
3:53 AM 72.0 °F - 61.0 °F 68% 29.71 in 10.0 mi South 9.2 mph - N/A   Clear
4:53 AM 71.1 °F - 60.1 °F 68% 29.73 in 10.0 mi South 8.1 mph - N/A   Clear
5:53 AM 68.0 °F - 61.0 °F 78% 29.73 in 10.0 mi South 6.9 mph - N/A   Clear
6:53 AM 69.1 °F - 61.0 °F 75% 29.72 in 10.0 mi South 9.2 mph - N/A   Clear
7:53 AM 72.0 °F - 62.1 °F 71% 29.73 in 10.0 mi SSE 8.1 mph - N/A   Clear
8:53 AM 75.9 °F - 63.0 °F 64% 29.71 in 10.0 mi South 18.4 mph 24.2 mph N/A   Clear
9:53 AM 80.1 °F 81.5 °F 63.0 °F 56% 29.70 in 10.0 mi South 21.9 mph 28.8 mph N/A   Clear
10:53 AM 84.0 °F 84.5 °F 62.1 °F 47% 29.69 in 10.0 mi South 23.0 mph 31.1 mph N/A   Clear
11:53 AM 88.0 °F 88.4 °F 62.1 °F 42% 29.70 in 10.0 mi SSW 16.1 mph 25.3 mph N/A   Clear
12:53 PM 91.0 °F 91.5 °F 62.1 °F 38% 29.68 in 10.0 mi South 18.4 mph 25.3 mph N/A   Clear
1:53 PM 91.0 °F 90.9 °F 61.0 °F 36% 29.67 in 10.0 mi South 16.1 mph 31.1 mph N/A   Clear
2:53 PM 93.9 °F 94.0 °F 61.0 °F 33% 29.63 in 10.0 mi South 24.2 mph 33.4 mph N/A   Clear
3:53 PM 95.0 °F 94.8 °F 60.1 °F 31% 29.61 in 10.0 mi South 24.2 mph 34.5 mph N/A   Clear
4:53 PM 96.1 °F 95.6 °F 59.0 °F 29% 29.59 in 10.0 mi South 21.9 mph 33.4 mph N/A   Clear
5:53 PM 96.1 °F 95.2 °F 57.9 °F 28% 29.57 in 10.0 mi South 26.5 mph 36.8 mph N/A   Clear
6:53 PM 91.9 °F 93.3 °F 64.0 °F 39% 29.56 in 10.0 mi SSE 26.5 mph 38.0 mph N/A   Clear
7:53 PM 90.0 °F 91.7 °F 64.9 °F 43% 29.57 in 10.0 mi South 25.3 mph 38.0 mph N/A   Clear
8:53 PM 86.0 °F 87.3 °F 64.0 °F 48% 29.58 in 10.0 mi South 23.0 mph 34.5 mph N/A   Clear
9:53 PM 84.0 °F 85.4 °F 64.0 °F 51% 29.58 in 10.0 mi South 21.9 mph 31.1 mph N/A   Clear
10:53 PM 82.9 °F 84.0 °F 63.0 °F 51% 29.61 in 10.0 mi South 24.2 mph 35.7 mph N/A   Clear
11:53 PM 82.0 °F 83.0 °F 62.1 °F 51% 29.62 in 10.0 mi South 21.9 mph 32.2 mph N/A   Clear